Wind_Speed
52 54 55 54 51 50 49 50 50 49 50 51 50 49 48 53 53 52 53 55 54 55 57 60 60 62 62 63 63 67 68 68 68 74 78 81 84 84
58 55 61 61 57 56 56 54 52 52 51 50 52 50 49 54 57 54 56 53 55 59 60 62 61 62 63 65 67 68 71 71 71 76 80 84 83 87
61 60 62 65 63 62 62 60 56 55 54 53 53 52 56 56 54 55 54 57 58 62 62 62 64 66 65 68 71 71 71 72 73 79 83 85 85 89
63 61 62 64 68 66 63 64 60 61 61 61 57 55 55 54 57 55 60 61 61 63 64 66 67 66 68 71 73 73 71 74 77 82 85 87 87 93
61 60 64 65 66 69 69 68 60 55 54 54 55 53 54 56 57 59 59 59 62 66 65 67 68 70 71 73 72 71 71 73 78 81 84 85 91 97
62 58 59 62 65 64 65 66 62 56 56 54 52 53 56 57 59 59 60 62 63 67 69 74 72 74 76 76 73 71 71 74 77 82 84 86 92 100
73 72 68 68 66 62 61 65 66 62 58 57 56 56 58 61 60 59 63 64 64 69 73 76 77 79 79 79 70 75 73 75 77 84 86 90 97 96
80 76 75 73 74 63 64 66 67 64 63 63 60 61 63 61 62 64 64 66 68 71 77 80 77 78 79 71 71 75 74 72 77 86 91 94 100 92
86 78 78 76 75 73 70 67 67 67 68 68 68 71 69 68 66 64 68 71 72 76 80 79 76 78 69 66 74 75 72 73 79 86 94 98 99 91
84 85 85 83 78 77 78 74 71 68 73 74 74 73 72 70 71 71 73 76 74 78 81 77 74 70 70 74 76 77 81 76 84 89 99 100 96 92
89 88 86 83 82 82 81 77 75 76 76 77 77 78 74 74 74 75 76 77 76 78 77 77 71 71 77 77 77 81 80 77 86 91 100 99 96 94
93 95 91 88 86 85 84 87 85 82 81 81 80 81 79 80 82 81 78 79 78 77 78 77 77 78 80 80 78 80 79 81 88 96 100 101 97 95
88 88 89 89 93 93 89 90 88 88 89 87 87 87 85 86 84 82 82 83 80 81 80 79 80 82 83 83 80 79 82 83 92 98 104 102 98 95
101 99 96 88 84 87 90 91 90 93 94 92 88 89 89 89 86 89 83 83 84 80 80 82 84 84 86 83 83 84 87 86 97 101 106 101 98 96
98 101 104 103 97 91 91 93 93 92 89 88 85 86 87 87 86 83 83 79 84 84 84 83 84 86 85 87 89 91 94 89 99 106 107 101 98 98
88 93 95 97 97 96 92 93 90 91 89 90 90 89 86 87 86 87 88 88 85 86 86 87 89 87 89 91 93 97 90 103 108 107 102 102 102 100
97 93 94 96 96 94 93 92 93 91 91 91 91 93 92 91 91 92 89 86 88 89 91 93 94 92 97 97 99 99 104 107 108 103 101 103 105 103
108 105 100 91 94 99 101 99 99 101 101 100 98 97 93 95 95 95 94 94 92 92 91 93 97 97 95 100 106 107 108 109 106 104 107 103 106 108
109 113 109 106 104 96 102 107 109 106 101 103 102 100 100 100 99 100 95 95 95 95 96 94 97 101 106 109 106 108 108 113 107 110 106 105 109 111
104 115 116 113 111 112 114 111 107 107 105 105 104 101 102 103 105 105 107 101 100 98 102 109 112 110 110 108 111 109 111 109 111 108 109 109 109 111
101 100 102 106 111 113 113 114 118 115 113 109 110 110 110 110 110 112 109 110 115 116 117 115 115 117 115 116 114 113 113 113 109 110 109 110 110 114
114 115 112 110 115 117 116 114 116 118 118 121 121 120 119 120 121 120 120 122 123 124 123 123 122 119 118 118 118 114 111 112 108 112 114 114 113 111
126 126 120 122 128 127 127 122 122 118 119 122 126 127 129 129 127 128 128 127 126 127 128 125 121 120 118 116 114 111 112 112 114 116 119 117 114 113
Wind_Direction
255 259 262 257 256 257 257 258 260 262 264 269 271 273 276 281 284 290 294 300 301 303 306 311 314 318 321 322 322 326 327 328 330 332 332 333 334 333
254 255 261 262 254 258 257 257 260 263 265 268 272 273 277 281 286 290 295 297 299 304 304 308 313 317 321 320 323 326 326 326 330 330 331 331 332 333
253 254 257 257 256 256 257 259 261 263 266 270 274 277 279 281 283 286 292 297 298 302 304 307 311 317 319 320 323 324 324 325 329 328 331 330 332 332
251 254 260 260 256 256 257 257 259 260 264 268 269 272 274 278 282 287 293 295 298 301 303 306 311 315 316 320 321 323 321 326 329 330 329 329 330 333
253 254 257 258 258 258 257 259 259 261 264 266 265 266 270 274 281 287 292 294 295 299 301 305 310 312 315 317 321 320 322 326 327 329 327 328 331 332
251 255 256 259 257 259 258 259 265 259 255 255 258 265 273 279 280 285 291 292 294 296 303 305 307 311 314 317 317 317 321 325 326 327 327 329 330 331
251 256 260 261 260 260 262 263 260 260 258 257 259 268 272 276 278 283 288 288 292 295 299 302 308 311 314 315 315 319 321 322 323 328 329 329 328 331
254 255 259 261 261 257 256 257 259 259 259 261 266 267 272 275 279 288 285 287 291 297 299 304 306 308 312 314 316 320 318 317 321 327 329 327 329 328
251 250 253 255 258 258 256 255 257 262 266 266 267 270 274 277 283 281 283 286 291 296 300 302 304 308 310 309 315 316 314 314 319 325 324 329 329 330
248 250 253 254 255 255 254 253 258 261 263 267 270 272 275 275 277 279 281 286 291 294 296 300 303 304 307 310 315 317 314 315 318 323 326 328 328 328
246 249 251 252 257 256 257 258 258 264 267 267 269 270 272 272 273 276 283 285 288 295 294 296 301 302 303 308 313 315 313 311 317 321 324 326 326 327
246 247 248 250 254 256 259 261 263 263 262 264 265 269 271 273 276 281 285 285 290 291 294 297 298 300 304 307 311 311 310 311 317 318 322 325 324 327
245 250 251 251 252 253 255 257 258 259 261 263 267 270 272 274 277 280 284 287 290 292 295 298 298 300 304 306 307 306 309 309 314 318 321 324 324 326
249 251 251 252 251 253 256 258 260 263 264 265 266 270 272 275 278 283 285 286 289 293 293 294 296 299 301 303 305 306 308 306 312 315 319 321 324 324
248 252 253 252 253 254 255 258 261 263 263 266 267 269 272 275 278 282 284 285 286 289 291 294 295 297 297 300 303 307 307 302 311 316 317 319 322 323
244 247 248 251 252 253 253 256 257 259 262 265 268 270 271 274 277 278 281 283 286 289 292 291 293 295 295 300 302 305 303 305 311 314 316 320 321 322
243 248 247 247 249 250 250 253 255 259 263 265 267 269 271 273 273 276 280 282 283 285 288 289 291 292 297 299 300 302 305 306 309 315 318 318 319 321
244 244 246 248 249 250 250 252 256 260 262 264 267 268 269 272 274 276 276 279 281 284 287 287 290 293 293 294 297 301 305 308 311 313 316 316 318 318
243 246 246 249 251 253 252 252 255 259 262 265 266 266 268 272 274 277 279 281 282 283 286 287 287 292 292 295 301 302 305 307 310 313 313 314 314 318
246 246 245 249 254 254 254 253 256 257 258 260 260 262 264 266 270 275 275 278 279 281 284 288 292 295 299 298 301 302 305 305 309 308 310 312 315 316
245 246 250 251 252 252 254 258 258 256 256 257 258 260 262 264 268 270 273 275 279 282 285 287 290 292 295 297 299 301 302 304 304 306 308 310 313 313
246 251 253 254 254 255 253 258 261 260 261 263 263 263 263 266 268 270 271 274 277 281 284 285 288 291 293 295 297 299 301 303 304 304 306 307 309 310
246 248 251 252 257 257 258 257 260 263 265 266 266 265 266 268 269 271 274 278 279 281 284 286 288 290 293 294 296 297 298 301 302 305 304 306 307 309
Height
10765 10768 10769 10771 10770 10770 10772 10771 10770 10770 10771 10770 10769 10770 10767 10763 10763 10763 10762 10760 10755 10751 10747 10742 10737 10731 10725 10718 10711 10703 10695 10685 10675 10665 10655 10644 10634 10621
10753 10756 10757 10760 10761 10758 10760 10761 10761 10760 10760 10761 10759 10759 10760 10756 10751 10750 10750 10750 10745 10740 10737 10732 10726 10721 10715 10708 10701 10693 10685 10676 10665 10655 10646 10635 10623 10611
10742 10742 10744 10746 10749 10747 10747 10748 10752 10751 10750 10751 10750 10748 10747 10745 10742 10740 10741 10738 10735 10731 10727 10723 10717 10712 10706 10700 10692 10684 10676 10667 10656 10647 10636 10624 10613 10601
10728 10730 10730 10733 10736 10735 10734 10733 10739 10740 10740 10739 10740 10738 10735 10735 10731 10731 10729 10727 10724 10721 10718 10713 10707 10703 10696 10690 10683 10674 10666 10657 10647 10637 10625 10614 10602 10591
10716 10717 10716 10718 10721 10724 10721 10719 10725 10729 10728 10728 10727 10725 10723 10723 10720 10718 10717 10715 10713 10708 10707 10703 10697 10693 10687 10680 10672 10666 10657 10648 10638 10626 10616 10604 10591 10580
10704 10704 10703 10702 10705 10709 10712 10708 10708 10714 10716 10716 10715 10713 10712 10710 10708 10708 10706 10705 10702 10697 10694 10691 10688 10681 10676 10669 10664 10656 10647 10637 10627 10617 10605 10593 10581 10569
10689 10690 10690 10689 10690 10694 10698 10696 10694 10699 10701 10702 10702 10703 10700 10697 10695 10696 10695 10693 10691 10686 10681 10677 10674 10670 10664 10658 10652 10645 10635 10627 10617 10606 10595 10583 10572 10557
10673 10675 10675 10676 10679 10682 10682 10684 10681 10683 10686 10687 10687 10686 10683 10683 10683 10683 10680 10680 10678 10674 10669 10665 10661 10656 10653 10645 10640 10632 10624 10616 10606 10596 10585 10575 10560 10545
10654 10656 10659 10660 10662 10665 10667 10667 10667 10666 10667 10667 10668 10668 10669 10669 10671 10669 10667 10665 10664 10659 10656 10652 10647 10643 10641 10636 10630 10623 10614 10605 10597 10585 10575 10564 10548 10533
10636 10639 10642 10643 10645 10646 10650 10649 10649 10651 10651 10652 10653 10651 10653 10655 10655 10655 10655 10654 10654 10648 10643 10642 10640 10631 10625 10622 10615 10607 10599 10591 10582 10571 10562 10553 10539 10524
10617 10621 10626 10630 10630 10631 10633 10634 10635 10636 10635 10635 10633 10637 10640 10640 10639 10641 10642 10642 10640 10636 10630 10628 10627 10622 10616 10611 10604 10595 10586 10578 10570 10559 10550 10544 10532 10516
10597 10603 10608 10612 10614 10614 10615 10616 10619 10616 10616 10618 10620 10619 10620 10623 10624 10626 10627 10626 10624 10620 10616 10616 10612 10607 10601 10598 10592 10582 10574 10566 10557 10547 10537 10531 10521 10507
10581 10587 10590 10590 10593 10593 10593 10595 10597 10595 10597 10603 10604 10605 10605 10606 10609 10610 10610 10608 10605 10603 10600 10599 10594 10589 10584 10580 10578 10570 10562 10553 10546 10535 10522 10516 10505 10494
10563 10567 10568 10571 10574 10574 10574 10576 10579 10579 10580 10585 10588 10589 10587 10588 10592 10593 10594 10590 10590 10586 10585 10582 10578 10573 10568 10563 10560 10555 10547 10540 10531 10520 10509 10501 10492 10479
10536 10541 10548 10552 10555 10555 10556 10559 10560 10562 10562 10564 10570 10573 10571 10571 10571 10571 10572 10571 10570 10570 10567 10565 10561 10556 10552 10546 10541 10538 10532 10524 10519 10509 10495 10487 10478 10465
10513 10518 10526 10532 10536 10535 10537 10540 10542 10543 10545 10545 10547 10551 10553 10554 10555 10554 10556 10554 10552 10549 10548 10545 10544 10538 10534 10528 10522 10520 10514 10506 10500 10495 10481 10464 10460 10452
10492 10496 10504 10509 10514 10516 10519 10520 10522 10524 10526 10526 10527 10530 10532 10534 10535 10536 10536 10534 10533 10533 10531 10527 10524 10519 10515 10509 10503 10502 10499 10490 10483 10473 10464 10448 10439 10436
10468 10475 10480 10486 10491 10496 10498 10499 10500 10502 10505 10509 10510 10511 10510 10510 10511 10514 10515 10515 10513 10513 10513 10508 10505 10502 10497 10493 10488 10485 10479 10464 10460 10456 10451 10443 10425 10416
10447 10454 10461 10465 10468 10474 10476 10477 10478 10481 10485 10486 10489 10491 10490 10490 10488 10488 10492 10493 10492 10493 10492 10491 10489 10485 10479 10470 10466 10461 10455 10449 10440 10434 10431 10425 10416 10402
10427 10431 10436 10441 10446 10450 10449 10450 10456 10460 10464 10466 10467 10469 10471 10470 10469 10470 10466 10470 10470 10467 10466 10458 10456 10456 10452 10446 10439 10438 10437 10430 10427 10419 10412 10405 10397 10386
10404 10408 10415 10418 10419 10421 10421 10422 10427 10437 10439 10443 10443 10445 10448 10450 10451 10448 10449 10448 10444 10444 10444 10445 10441 10439 10435 10430 10423 10415 10412 10417 10411 10399 10394 10390 10383 10371
10380 10384 10390 10391 10390 10391 10397 10398 10401 10403 10411 10415 10418 10420 10424 10426 10426 10427 10429 10427 10426 10423 10419 10417 10420 10418 10415 10411 10408 10402 10390 10387 10389 10381 10373 10375 10369 10364
10356 10358 10367 10365 10358 10364 10365 10376 10378 10382 10383 10386 10386 10392 10395 10397 10400 10401 10401 10399 10401 10401 10398 10396 10393 10393 10391 10391 10384 10381 10375 10369 10365 10357 10344 10347 10342 10336